This is the latest recevied weather packets stored in our database for station/object WC4PEM-15. If no packets are shown the sender has not sent any weather packets the latest 10 day(s).
| Time | Temp. | Humidity | Pressure | Rain* | Wind** | Luminosity | Snow |
|---|---|---|---|---|---|---|---|
| 1787434732 | 24.44° C | 88% | 1015.1 hPa | 0 mm | - | - | - |
| 1787434629 | 24.44° C | 88% | 1015.1 hPa | 0 mm | - | - | - |
| 1787434445 | 25° C | 87% | 1015.1 hPa | 0 mm | - | - | - |
| 1787434329 | 25° C | 87% | 1015.1 hPa | 0 mm | - | - | - |
| 1787434156 | 26.67° C | 85% | 1015.4 hPa | 0 mm | - | - | - |
| 1787434029 | 26.67° C | 85% | 1015.4 hPa | 0 mm | - | - | - |
| 1787433824 | 27.78° C | 82% | 1015.1 hPa | 0 mm | - | - | - |
| 1787433729 | 27.78° C | 82% | 1015.1 hPa | 0 mm | - | - | - |
| 1787433582 | 28.33° C | 80% | 1014.9 hPa | 0 mm | - | - | - |
| 1787433429 | 28.33° C | 80% | 1014.9 hPa | 0 mm | - | - | - |
| 1787433176 | 28.89° C | 77% | 1014.7 hPa | 0 mm | - | - | - |
| 1787433129 | 28.89° C | 77% | 1014.7 hPa | 0 mm | - | - | - |
| 1787432930 | 29.44° C | 72% | 1014.6 hPa | 0 mm | - | - | - |
| 1787432829 | 29.44° C | 72% | 1014.6 hPa | 0 mm | - | - | - |
| 1787432529 | 29.44° C | 70% | 1014.8 hPa | 0 mm | - | - | - |
| 1787432323 | 30° C | 70% | 1014.7 hPa | 0 mm | - | - | - |
| 1787432229 | 30° C | 70% | 1014.7 hPa | 0 mm | - | - | - |
| 1787431964 | 30° C | 69% | 1014.6 hPa | 0 mm | - | - | - |
| 1787431929 | 30° C | 69% | 1014.6 hPa | 0 mm | - | - | - |
| 1787431629 | 30° C | 69% | 1014.5 hPa | 0 mm | - | - | - |
| 1787431413 | 30.56° C | 69% | 1014.5 hPa | 0 mm | - | - | - |
| 1787431329 | 30.56° C | 69% | 1014.5 hPa | 0 mm | - | - | - |
| 1787431029 | 30.56° C | 68% | 1014.5 hPa | 0 mm | - | - | - |
| 1787430822 | 31.11° C | 66% | 1014.4 hPa | 0 mm | - | - | - |
| 1787430729 | 31.11° C | 66% | 1014.4 hPa | 0 mm | - | - | - |
* Rain latest hour (hover to see other rain measurements)
** Current wind speed in m/s (hover to see current wind gust speed)